This is the latest recevied weather packets stored in our database for station/object N0NAI-13. If no packets are shown the sender has not sent any weather packets the latest 10 day(s).
| Time | Temp. | Humidity | Pressure | Rain* | Wind** | Luminosity | Snow |
|---|---|---|---|---|---|---|---|
| 1777382718 | 7.78° C | 87% | 1016 hPa | 0 mm | - | - | - |
| 1777382121 | 7.22° C | 90% | 1016.1 hPa | 0 mm | - | - | - |
| 1777381524 | 7.22° C | 93% | 1015.7 hPa | 0 mm | - | - | - |
| 1777380927 | 6.67° C | 96% | 1015.2 hPa | 0 mm | - | - | - |
| 1777380324 | 6.67° C | 98% | 1015 hPa | 0 mm | - | - | - |
| 1777379721 | 6.11° C | 99% | 1014.8 hPa | 0 mm | - | - | - |
| 1777379117 | 6.11° C | 99% | 1014.5 hPa | 0 mm | - | - | - |
| 1777378519 | 5.56° C | 99% | 1014.3 hPa | 0 mm | - | - | - |
| 1777377922 | 5.56° C | 99% | 1014.1 hPa | 0 mm | - | - | - |
| 1777377326 | 5.56° C | 99% | 1014 hPa | 0 mm | - | - | - |
| 1777376729 | 6.11° C | 99% | 1013.8 hPa | 0 mm | - | - | - |
| 1777376131 | 6.11° C | 99% | 1013.7 hPa | 0 mm | - | - | - |
| 1777375516 | 6.11° C | 99% | 1013.6 hPa | 0 mm | - | - | - |
| 1777374919 | 6.11° C | 99% | 1013.2 hPa | 0 mm | - | - | - |
| 1777374321 | 6.67° C | 98% | 1013 hPa | 0 mm | - | - | - |
| 1777373723 | 6.67° C | 98% | 1012.7 hPa | 0 mm | - | - | - |
| 1777373127 | 6.67° C | 98% | 1012.6 hPa | 0 mm | - | - | - |
| 1777372530 | 6.67° C | 98% | 1012.4 hPa | 0 mm | - | - | - |
| 1777371933 | 6.67° C | 98% | 1012.4 hPa | 0 mm | - | - | - |
| 1777371318 | 6.67° C | 98% | 1012.2 hPa | 0 mm | - | - | - |
| 1777370720 | 7.22° C | 99% | 1012.2 hPa | 0 mm | - | - | - |
| 1777370124 | 7.22° C | 99% | 1012.1 hPa | 0 mm | - | - | - |
| 1777369526 | 7.22° C | 99% | 1011.9 hPa | 0 mm | - | - | - |
| 1777368924 | 7.22° C | 99% | 1011.7 hPa | 0 mm | - | - | - |
| 1777368321 | 7.22° C | 99% | 1011.7 hPa | 0 mm | - | - | - |
* Rain latest hour (hover to see other rain measurements)
** Current wind speed in m/s (hover to see current wind gust speed)